Location: Axtheid
(49.6213°N, 11.8205°E)
Time: 08:58:06
(UTC+00:00)

NOSS 2-1 (E) - Pass Details

Date: 18 February 2020
Orbit: 450 x 1753 km, 63.3° (Epoch: 05 April)

Event Time Altitude Azimuth Distance (km) Brightness Sun altitude
Exits shadow 04:17:29 60° 322° (NW) 560 3.1 -20.2°
Drops below altitude 10° 04:21:18 10° 38° (NE) 1,826 6.5 -19.6°
Sets 04:23:47 0° 42° (NE) 2,872 7.7 -19.2°
